Temperature
20 19 20 20 20 20 20 19 19 19 19 19 19 19 19 19 19 19 19 19 19 19 19 19 19 19 19 19 20 20 20 20 20 20 19 19 20 20 19 19 19 19 19
21 19 19 20 20 20 20 20 20 20 19 19 19 19 19 19 19 19 19 19 19 19 19 19 19 19 19 19 20 20 20 20 20 20 20 19 19 19 19 19 19 19 19
21 20 20 20 20 20 20 20 20 20 20 20 20 19 19 20 19 19 19 19 19 19 19 19 19 19 19 19 19 20 20 20 20 20 20 20 20 19 19 19 19 19 19
21 20 21 21 20 20 20 20 20 20 20 20 20 20 20 20 20 19 19 19 19 19 19 19 19 19 19 19 19 19 19 19 20 20 20 20 20 19 19 19 19 19 19
21 21 21 21 21 21 21 20 20 20 20 20 20 20 20 20 19 19 19 19 19 19 19 19 19 19 19 19 19 19 19 19 19 19 19 19 19 19 19 19 19 19 19
21 21 21 22 21 21 21 21 20 20 20 20 20 20 20 20 19 19 19 19 19 19 19 19 19 19 19 19 18 18 18 18 18 19 19 18 18 18 18 18 18 17 18
21 21 21 22 22 21 21 21 21 20 20 20 20 20 20 20 20 19 19 19 19 19 19 19 19 18 18 18 18 18 18 18 18 18 18 18 18 18 18 18 17 17 17
21 21 21 21 22 21 21 21 21 20 20 20 20 19 19 19 19 19 19 19 19 19 19 18 18 18 18 18 18 18 18 18 18 18 18 18 17 17 18 18 18 17 17
21 21 21 21 21 21 21 21 20 20 20 20 19 19 19 19 19 19 18 18 18 18 18 18 18 18 18 18 18 18 18 17 18 18 17 18 17 17 17 18 18 18 17
21 20 20 20 20 21 20 20 20 19 19 19 19 19 19 19 19 19 18 18 18 18 18 18 18 18 18 18 18 18 18 17 17 17 17 17 17 17 17 18 18 18 17
20 20 20 20 20 20 20 19 19 19 19 19 19 19 19 19 19 18 18 18 18 18 18 18 18 18 18 18 18 18 18 18 17 17 18 17 17 17 17 17 18 17 17
19 19 20 20 20 20 20 19 19 19 19 19 19 19 19 19 18 18 18 18 18 18 18 18 18 18 18 18 18 18 18 18 18 18 18 17 17 17 17 18 18 17 17
19 19 19 19 19 20 20 20 20 20 20 20 19 19 19 18 18 18 18 18 18 17 18 18 17 17 17 17 18 17 17 18 18 18 18 18 17 17 17 18 18 17 17
20 20 20 19 19 19 19 20 20 20 20 19 19 19 18 18 18 18 17 17 17 17 17 17 18 17 17 17 17 18 18 18 18 18 18 18 18 18 18 18 17 17 17
20 20 20 20 20 19 19 20 19 19 19 19 19 19 18 18 18 18 18 17 17 17 17 17 18 17 17 18 18 18 18 18 18 18 18 18 18 18 18 18 18 17 17
20 21 21 20 20 20 20 20 19 19 19 19 18 18 18 18 18 17 18 17 17 17 17 17 17 17 18 18 18 18 18 18 18 18 18 18 18 18 18 18 18 18 17
20 20 20 20 20 20 20 20 20 19 18 18 18 18 18 18 18 18 17 17 17 17 17 17 17 18 18 18 18 18 18 18 18 18 18 18 18 18 18 18 18 18 18
20 20 20 19 19 19 19 20 19 19 18 18 18 18 18 18 18 18 17 17 17 17 17 17 17 17 18 18 18 18 18 18 18 18 18 18 18 18 18 18 18 18 18
20 21 21 21 20 19 18 19 19 18 18 18 18 18 18 18 18 18 17 18 18 17 18 18 18 18 18 18 18 18 18 18 18 18 18 18 18 18 18 18 18 18 18
20 20 21 21 21 19 18 18 18 18 18 18 18 18 18 17 17 17 17 18 18 18 18 18 18 18 17 18 17 17 17 18 18 18 18 18 18 18 18 18 18 18 18
19 19 19 20 20 19 19 18 18 18 18 18 18 18 17 17 17 17 18 18 18 18 18 17 17 17 17 17 17 17 17 17 17 18 18 18 18 18 18 18 19 18 18
18 18 19 20 19 18 18 18 18 18 17 17 17 17 17 17 17 17 18 18 18 18 17 17 16 16 16 16 16 16 15 16 17 18 19 19 19 18 18 18 18 18 18
18 19 20 21 20 19 18 18 18 17 17 17 16 16 17 18 18 18 18 17 17 16 16 17 16 16 15 15 16 15 15 16 16 17 18 19 19 18 18 18 18 18 18
18 18 19 20 21 20 20 18 17 16 16 16 16 15 16 16 17 17 17 17 17 16 16 16 15 15 15 15 15 15 15 15 15 16 17 18 18 18 18 18 18 18 18
18 18 19 19 20 20 20 18 17 16 15 14 14 15 15 16 16 16 16 16 16 16 16 15 15 15 14 14 15 15 15 15 15 15 16 16 17 17 18 17 18 18 18
16 16 16 17 18 19 18 17 16 15 15 14 15 15 15 15 15 16 16 16 15 15 15 14 14 14 14 14 14 14 14 14 15 15 16 16 16 17 17 17 17 17 17
Wind_Speed
7 13 20 20 19 17 17 16 15 15 14 15 16 16 15 14 13 11 11 10 9 7 6 6 8 8 8 9 9 8 8 8 8 8 8 8 8 9 9 9 9 9 11
12 14 19 20 20 18 17 17 16 15 14 14 15 14 14 13 12 11 9 9 8 7 6 5 5 6 6 7 7 7 6 5 5 6 6 5 5 6 7 8 8 7 8
14 16 19 20 20 19 17 16 16 15 14 13 13 13 13 13 12 11 9 8 8 6 6 5 4 4 5 5 5 5 4 4 3 3 4 4 3 2 3 6 7 7 6
13 15 18 21 21 20 18 16 16 15 14 13 13 12 12 12 12 11 9 8 7 6 5 4 3 3 3 4 4 4 3 2 2 2 2 1 0 0 2 5 5 6 6
11 14 18 22 22 21 19 18 16 16 14 13 12 11 10 9 8 8 8 7 5 5 4 4 3 3 3 3 4 3 3 3 2 2 1 2 2 3 4 6 5 6 7
9 12 17 21 21 20 20 19 18 16 15 12 11 10 9 8 7 6 5 4 4 4 4 5 4 3 3 3 3 3 4 4 4 3 3 5 6 5 7 8 9 9 9
8 11 16 20 20 20 19 19 17 15 14 12 10 9 8 7 7 6 5 5 5 5 4 3 3 3 4 5 5 5 5 5 5 4 3 5 6 8 10 13 13 12 12
10 9 13 20 20 19 18 17 16 15 13 11 9 8 7 7 7 7 6 5 5 5 5 4 5 5 5 6 7 6 6 6 6 4 4 5 7 9 11 12 15 16 16
8 7 8 13 17 18 16 15 14 13 11 10 9 8 8 7 6 6 7 8 8 7 7 6 7 7 7 8 9 9 8 9 8 6 6 6 9 11 11 12 16 17 17
7 6 5 7 10 11 12 14 13 11 10 10 9 9 8 8 8 7 8 9 10 10 10 9 10 10 10 10 10 11 11 11 10 8 8 9 11 12 11 11 14 17 18
8 7 5 5 7 8 8 10 12 11 11 10 9 9 8 7 7 6 8 10 11 12 12 11 12 13 12 13 13 13 13 10 11 11 11 13 14 14 13 14 15 19 20
15 12 9 7 6 9 9 9 10 10 11 12 10 9 7 7 7 8 9 11 12 13 13 14 14 15 14 12 12 14 13 12 11 13 14 17 17 16 16 16 16 17 18
12 11 10 7 6 7 6 8 9 10 9 10 10 9 7 7 7 8 8 10 12 13 12 13 13 13 13 12 12 12 13 13 12 14 15 19 19 17 17 17 17 17 16
13 12 10 9 8 7 7 7 8 8 9 8 10 11 8 6 5 6 6 9 9 10 9 10 9 10 11 12 12 13 12 12 12 13 15 19 19 17 17 17 16 16 17
16 15 13 12 11 9 7 6 7 8 9 11 12 13 12 7 6 6 6 7 8 9 7 7 7 7 8 10 10 11 12 12 14 13 14 18 20 20 19 17 17 18 19
13 13 11 12 13 12 11 8 6 7 9 10 10 12 14 11 7 6 6 6 7 9 9 7 6 5 6 7 8 9 11 11 13 13 13 15 19 21 20 19 18 16 16
11 10 9 10 11 11 12 12 8 10 10 9 10 13 14 13 11 8 6 6 7 8 8 7 7 6 6 6 9 9 9 10 11 13 13 13 15 18 19 18 19 16 16
4 4 7 9 10 12 12 12 8 9 9 9 11 12 14 15 15 10 7 7 9 8 6 5 6 5 6 6 7 8 9 8 10 12 14 13 13 14 16 17 17 17 17
6 8 10 10 9 9 9 9 10 9 8 9 10 10 12 13 13 9 7 7 9 6 5 5 6 6 6 7 7 8 8 9 10 9 11 12 13 13 12 13 17 17 18
3 4 8 9 9 9 7 6 7 6 7 7 7 9 10 10 10 9 6 6 5 5 6 6 6 6 6 7 6 8 9 9 8 9 11 10 10 11 10 10 11 12 17
12 8 4 4 5 6 6 6 6 6 5 5 6 8 10 10 9 8 5 5 3 4 6 6 5 7 6 3 4 6 8 10 9 11 10 9 9 8 9 9 9 10 12
14 10 4 2 1 4 5 6 6 4 3 3 3 4 6 6 6 3 1 1 3 4 6 6 6 5 5 4 4 3 6 7 7 8 8 9 9 6 7 8 9 10 10
12 8 4 2 7 8 7 5 2 2 2 2 2 1 2 3 2 1 2 2 4 4 6 7 8 9 9 6 8 7 6 5 3 3 3 5 5 4 5 5 7 9 9
12 8 5 7 12 12 6 5 6 3 5 5 2 2 2 3 4 2 2 2 3 3 5 6 7 7 8 7 6 8 9 4 3 3 3 3 3 3 5 5 7 8 9
8 6 6 8 9 5 5 3 5 8 11 5 3 3 1 3 5 3 1 2 3 2 4 4 5 5 5 6 6 4 4 5 5 5 5 3 3 4 4 6 6 7 7
6 6 5 8 9 6 2 4 3 8 10 7 4 3 3 3 3 1 1 3 3 2 3 4 4 4 4 3 4 4 3 3 4 5 7 6 5 4 4 5 7 7 6
Wind_Direction
165 164 158 154 148 144 138 133 129 123 117 113 114 116 119 123 127 129 128 128 128 123 110 101 102 104 106 109 111 109 108 112 119 116 110 108 111 110 110 108 105 104 105
151 160 157 156 150 147 143 140 137 132 127 122 120 122 125 129 128 126 127 130 130 130 122 114 111 111 112 113 117 121 119 119 129 123 111 97 104 110 113 116 115 111 110
145 156 156 157 154 151 149 147 145 142 138 135 131 130 132 135 139 136 134 135 137 138 134 134 139 139 133 132 134 136 137 134 121 118 102 77 65 89 125 127 132 130 126
145 152 154 157 156 156 155 154 152 149 147 145 143 142 141 141 144 149 149 149 150 153 154 149 147 159 160 163 161 164 166 165 156 151 94 79 36 322 175 162 161 161 157
138 145 154 158 159 162 161 159 159 159 159 156 150 146 146 143 145 154 160 162 164 170 183 184 178 187 198 209 191 194 201 221 227 236 204 231 251 251 223 205 210 203 187
135 144 157 158 161 164 165 165 166 166 166 163 156 153 156 155 157 160 170 178 184 195 207 198 197 214 228 238 229 229 229 235 239 236 241 251 250 245 232 231 230 228 220
130 147 162 160 164 167 170 171 170 171 171 170 166 165 170 173 175 179 188 210 209 203 218 230 221 232 247 256 259 254 252 253 259 257 260 268 259 260 265 245 225 226 229
144 149 163 167 169 172 173 174 175 176 176 177 178 179 187 196 199 194 203 222 237 228 219 236 248 256 263 261 263 266 263 259 260 264 269 275 275 283 289 244 220 221 223
147 142 159 171 174 175 177 178 180 181 182 185 189 189 197 213 223 219 225 228 234 237 237 242 260 269 275 269 265 266 267 266 262 256 259 262 268 277 289 253 227 224 223
155 148 151 164 172 172 180 186 187 191 194 197 199 198 204 218 229 239 240 244 245 244 243 249 261 267 266 263 265 269 271 270 270 267 260 257 262 269 276 269 240 234 233
173 167 159 159 157 156 168 188 190 196 203 208 212 213 213 221 236 247 248 251 252 256 256 258 263 266 267 264 261 263 268 267 268 269 265 262 263 266 267 263 253 248 248
189 189 183 169 159 160 165 170 176 190 196 202 206 214 213 217 234 247 252 256 258 261 264 265 265 266 267 265 265 264 264 265 263 265 263 260 259 259 262 259 266 257 248
192 196 194 176 167 172 172 169 176 185 190 196 202 207 218 228 234 247 260 264 265 266 266 265 266 266 265 258 257 257 257 261 260 261 263 267 268 261 255 255 265 254 247
188 197 191 180 180 185 183 182 185 188 188 195 203 207 210 227 234 234 240 252 255 256 255 256 254 254 264 265 259 260 257 257 256 258 263 266 268 263 257 259 261 254 253
190 194 186 183 186 190 192 195 197 198 196 196 200 209 211 216 226 237 244 251 256 256 250 254 250 247 256 262 257 257 258 257 258 252 257 269 272 269 262 256 255 252 253
193 198 190 193 195 192 198 201 204 206 208 203 206 212 213 216 220 226 239 249 259 258 255 252 250 248 254 258 263 256 258 264 263 255 254 262 266 267 265 259 253 253 254
196 193 194 199 201 202 203 201 201 208 202 206 217 220 220 220 219 221 230 242 251 262 266 261 258 260 264 259 261 263 264 265 264 262 256 253 259 263 262 258 255 252 244
196 191 206 212 207 210 209 204 199 206 206 207 211 215 220 221 216 216 223 233 241 247 248 252 255 263 263 258 259 264 267 265 262 263 265 256 250 253 258 257 252 249 246
198 206 207 205 205 214 223 219 206 200 204 205 200 205 211 209 208 206 220 231 236 244 247 245 251 243 258 261 263 270 266 268 270 268 264 261 253 247 247 256 257 250 246
274 248 229 206 197 197 205 220 238 219 204 196 193 194 199 202 206 206 215 231 238 250 263 261 264 261 257 264 268 273 272 268 264 265 262 262 258 253 247 248 257 255 251
9 359 310 239 216 196 197 198 209 215 204 200 210 198 194 196 196 196 199 217 231 249 268 279 287 283 272 250 265 269 262 260 259 258 252 251 251 249 246 244 246 253 252
355 357 345 249 271 273 245 220 210 182 199 213 227 219 188 173 157 166 127 339 317 309 299 286 272 278 274 223 235 277 281 276 256 249 241 237 246 247 250 246 236 246 250
264 278 290 297 274 267 281 251 242 180 188 119 115 54 357 356 7 17 22 339 301 286 284 286 277 270 276 253 224 239 264 258 283 284 267 251 249 249 255 255 256 259 259
246 248 244 231 241 233 205 259 237 125 64 72 88 102 40 335 303 331 344 309 295 294 285 283 287 284 279 281 261 235 242 244 236 293 307 299 283 257 257 260 260 255 249
283 270 261 258 253 235 136 242 236 107 92 91 111 82 18 288 279 267 317 308 307 302 297 312 327 312 288 286 286 277 247 241 232 228 263 289 291 261 254 255 265 265 253
313 316 309 298 285 271 137 139 152 141 136 153 153 185 232 245 252 289 335 341 329 316 305 317 324 325 319 302 288 270 252 242 240 227 240 247 256 266 273 271 270 266 262
Height
1524 1526 1528 1530 1533 1536 1539 1542 1544 1545 1546 1547 1548 1550 1552 1554 1555 1556 1557 1558 1559 1560 1560 1559 1560 1560 1561 1562 1563 1563 1563 1563 1564 1565 1565 1565 1565 1565 1564 1564 1565 1564 1564
1523 1526 1530 1533 1535 1537 1540 1542 1544 1546 1547 1548 1549 1551 1552 1554 1556 1557 1558 1559 1560 1561 1561 1561 1562 1562 1562 1563 1563 1564 1565 1565 1565 1565 1566 1567 1567 1567 1567 1567 1567 1567 1566
1522 1525 1529 1533 1536 1539 1541 1543 1545 1547 1548 1550 1551 1552 1554 1555 1556 1557 1559 1560 1561 1561 1562 1562 1563 1563 1564 1564 1564 1565 1565 1565 1566 1566 1566 1567 1568 1568 1568 1568 1569 1569 1568
1521 1524 1527 1532 1536 1539 1542 1544 1546 1548 1549 1551 1552 1553 1555 1556 1557 1557 1559 1560 1561 1562 1563 1563 1563 1564 1564 1564 1565 1566 1566 1566 1566 1566 1567 1567 1568 1568 1568 1569 1569 1569 1569
1521 1524 1528 1531 1534 1538 1540 1543 1545 1548 1550 1551 1553 1555 1556 1557 1558 1558 1559 1560 1561 1562 1563 1563 1564 1564 1564 1564 1565 1565 1566 1566 1566 1566 1566 1566 1567 1567 1568 1568 1569 1569 1569
1521 1525 1528 1531 1534 1537 1540 1542 1544 1547 1550 1552 1554 1556 1557 1558 1559 1559 1560 1561 1562 1562 1563 1563 1563 1564 1564 1564 1564 1564 1564 1565 1565 1565 1565 1565 1565 1566 1567 1567 1568 1568 1568
1522 1525 1528 1532 1535 1537 1540 1542 1545 1547 1550 1552 1554 1556 1557 1558 1559 1560 1561 1561 1562 1562 1563 1564 1564 1564 1563 1563 1563 1563 1563 1563 1563 1563 1563 1564 1564 1565 1565 1566 1566 1566 1567
1523 1526 1529 1532 1535 1538 1540 1543 1545 1547 1550 1552 1553 1555 1556 1558 1559 1560 1561 1561 1562 1562 1563 1563 1564 1563 1563 1562 1562 1562 1561 1561 1560 1560 1561 1562 1563 1564 1564 1564 1564 1564 1564
1523 1526 1529 1532 1535 1538 1541 1543 1545 1547 1549 1551 1552 1554 1555 1557 1558 1559 1560 1561 1561 1562 1562 1562 1563 1563 1562 1561 1561 1561 1560 1559 1559 1559 1559 1560 1560 1561 1562 1562 1562 1561 1561
1523 1526 1529 1532 1535 1538 1541 1543 1545 1547 1549 1551 1552 1553 1554 1556 1557 1558 1559 1559 1560 1560 1560 1560 1560 1560 1560 1560 1559 1559 1559 1558 1558 1557 1557 1557 1557 1558 1559 1559 1559 1560 1559
1522 1525 1529 1532 1535 1538 1541 1543 1545 1546 1548 1550 1552 1552 1553 1554 1556 1556 1557 1558 1558 1559 1559 1558 1558 1558 1558 1558 1557 1557 1557 1556 1556 1555 1554 1554 1554 1554 1555 1555 1556 1557 1557
1519 1523 1527 1530 1532 1535 1538 1540 1542 1543 1546 1548 1549 1551 1551 1552 1553 1554 1555 1556 1556 1557 1557 1556 1556 1556 1555 1555 1555 1555 1554 1554 1553 1553 1551 1552 1551 1551 1551 1551 1552 1553 1553
1519 1523 1526 1529 1531 1533 1535 1537 1539 1540 1542 1544 1546 1547 1549 1549 1550 1551 1553 1553 1554 1554 1554 1554 1554 1554 1553 1551 1551 1551 1551 1550 1550 1550 1549 1549 1548 1548 1546 1547 1548 1549 1549
1518 1522 1524 1527 1529 1531 1533 1534 1535 1537 1539 1541 1543 1544 1545 1547 1548 1549 1550 1551 1551 1552 1552 1551 1551 1550 1550 1549 1548 1547 1547 1548 1547 1547 1546 1546 1545 1545 1544 1544 1544 1544 1545
1515 1518 1521 1524 1526 1528 1530 1531 1532 1534 1534 1536 1538 1540 1541 1543 1545 1546 1547 1548 1549 1549 1549 1548 1548 1547 1547 1546 1545 1545 1544 1544 1545 1544 1544 1544 1543 1541 1541 1540 1540 1541 1541
1515 1518 1519 1522 1524 1526 1527 1528 1530 1532 1533 1534 1535 1536 1538 1539 1541 1543 1544 1545 1546 1546 1547 1546 1546 1545 1543 1543 1542 1542 1541 1541 1541 1541 1540 1540 1539 1538 1538 1537 1537 1537 1537
1516 1519 1521 1523 1524 1525 1524 1525 1526 1529 1531 1532 1534 1535 1535 1537 1539 1541 1541 1542 1542 1543 1542 1542 1542 1541 1540 1539 1538 1538 1538 1537 1537 1537 1536 1535 1535 1535 1534 1533 1533 1533 1533
1519 1521 1523 1523 1523 1524 1523 1522 1523 1526 1528 1529 1531 1533 1533 1535 1536 1538 1538 1539 1539 1539 1539 1538 1538 1537 1536 1535 1535 1534 1534 1533 1533 1533 1532 1531 1531 1531 1531 1530 1529 1529 1529
1518 1519 1519 1519 1519 1522 1523 1522 1521 1522 1524 1525 1527 1528 1529 1530 1532 1533 1534 1535 1536 1535 1535 1534 1533 1533 1531 1531 1531 1530 1529 1529 1528 1528 1528 1527 1527 1526 1526 1526 1526 1525 1525
1517 1518 1518 1517 1518 1520 1522 1523 1523 1521 1520 1520 1521 1521 1523 1524 1526 1527 1529 1530 1531 1531 1531 1530 1529 1528 1527 1527 1526 1525 1525 1524 1524 1523 1523 1523 1522 1521 1522 1522 1523 1522 1521
1515 1517 1517 1517 1516 1516 1516 1517 1517 1516 1514 1513 1515 1515 1516 1518 1519 1521 1523 1525 1526 1526 1526 1525 1523 1522 1521 1522 1520 1518 1517 1518 1517 1516 1516 1516 1516 1516 1516 1517 1519 1519 1518
1513 1513 1511 1511 1513 1514 1514 1512 1510 1509 1509 1507 1509 1512 1514 1516 1515 1517 1517 1519 1521 1521 1520 1520 1518 1516 1514 1515 1515 1512 1509 1508 1509 1509 1509 1509 1510 1511 1512 1512 1512 1513 1513
1517 1510 1504 1502 1504 1505 1507 1506 1504 1503 1504 1503 1502 1510 1515 1516 1514 1513 1513 1514 1517 1516 1515 1514 1513 1509 1506 1506 1509 1510 1508 1502 1503 1503 1503 1502 1504 1505 1507 1508 1508 1508 1508
1503 1501 1499 1497 1496 1494 1493 1499 1498 1495 1497 1498 1500 1506 1509 1510 1511 1511 1510 1511 1511 1510 1510 1507 1505 1503 1501 1500 1501 1500 1501 1500 1501 1498 1500 1499 1500 1500 1502 1503 1503 1503 1502
1495 1494 1492 1491 1489 1488 1480 1494 1490 1485 1486 1491 1494 1499 1503 1507 1509 1508 1506 1507 1506 1506 1505 1502 1500 1499 1498 1497 1495 1493 1493 1494 1495 1495 1496 1497 1497 1498 1498 1497 1498 1497 1497
1490 1487 1485 1486 1485 1483 1473 1477 1479 1481 1481 1486 1493 1499 1502 1502 1503 1502 1502 1503 1502 1501 1500 1499 1498 1496 1494 1493 1490 1489 1490 1491 1491 1491 1491 1491 1491 1491 1493 1494 1492 1492 1491